owner,sensor,date,latitude,longitude,vertical_datum,wind_speed,wind_to_direction,wind_speed_of_gust,qcFlag 
DISL,ioos:station:DISL:MHPA:1,2014-02-01T00:00:00Z,30.6671,-87.9365,8.5,2.66,161.9,-9999.0,'1111122,1111122,1111122' 
DISL,ioos:station:DISL:MHPA:1,2014-02-01T00:30:00Z,30.6671,-87.9365,8.5,1.82,135.4,-9999.0,'1111122,1111122,1111122' 
DISL,ioos:station:DISL:MHPA:1,2014-02-01T01:00:00Z,30.6671,-87.9365,8.5,1.62,118.7,-9999.0,'1111122,1111122,1111122' 
DISL,ioos:station:DISL:MHPA:1,2014-02-01T01:30:00Z,30.6671,-87.9365,8.5,1.65,113.6,-9999.0,'1111122,1111122,1111122' 
DISL,ioos:station:DISL:MHPA:1,2014-02-01T02:00:00Z,30.6671,-87.9365,8.5,2.44,104.9,-9999.0,'1111122,1111122,1111122' 
DISL,ioos:station:DISL:MHPA:1,2014-02-01T02:30:00Z,30.6671,-87.9365,8.5,3.33,108.8,-9999.0,'1111122,1111122,1111122' 
DISL,ioos:station:DISL:MHPA:1,2014-02-01T03:00:00Z,30.6671,-87.9365,8.5,2.02,94.6,-9999.0,'1111122,1111122,1111122' 
DISL,ioos:station:DISL:MHPA:1,2014-02-01T03:30:00Z,30.6671,-87.9365,8.5,0.76,99.8,-9999.0,'1111122,1111122,1111122' 
DISL,ioos:station:DISL:MHPA:1,2014-02-01T04:00:00Z,30.6671,-87.9365,8.5,1.9,60.59,-9999.0,'1111122,1111122,1111122' 
DISL,ioos:station:DISL:MHPA:1,2014-02-01T04:30:00Z,30.6671,-87.9365,8.5,1.09,94.8,-9999.0,'1111122,1111122,1111122' 
DISL,ioos:station:DISL:MHPA:1,2014-02-01T05:00:00Z,30.6671,-87.9365,8.5,1.08,133.2,-9999.0,'1111122,1111122,1111122' 
DISL,ioos:station:DISL:MHPA:1,2014-02-01T05:30:00Z,30.6671,-87.9365,8.5,2.63,134.1,-9999.0,'1111122,1111122,1111122' 
DISL,ioos:station:DISL:MHPA:1,2014-02-01T06:00:00Z,30.6671,-87.9365,8.5,1.33,122.3,-9999.0,'1111122,1111122,1111122' 
DISL,ioos:station:DISL:MHPA:1,2014-02-01T06:30:00Z,30.6671,-87.9365,8.5,1.1,131.9,-9999.0,'1111122,1111122,1111122' 
DISL,ioos:station:DISL:MHPA:1,2014-02-01T07:00:00Z,30.6671,-87.9365,8.5,0.68,340.7,-9999.0,'1111122,1111122,1111122' 
DISL,ioos:station:DISL:MHPA:1,2014-02-01T07:30:00Z,30.6671,-87.9365,8.5,1.88,138.0,-9999.0,'1111122,1111122,1111122' 
DISL,ioos:station:DISL:MHPA:1,2014-02-01T08:00:00Z,30.6671,-87.9365,8.5,0.39,189.5,-9999.0,'1111122,1111122,1111122' 
DISL,ioos:station:DISL:MHPA:1,2014-02-01T08:30:00Z,30.6671,-87.9365,8.5,1.52,229.5,-9999.0,'1111122,1111122,1111122' 
DISL,ioos:station:DISL:MHPA:1,2014-02-01T09:00:00Z,30.6671,-87.9365,8.5,0.04,17.18,-9999.0,'1111122,1111122,1111122' 
DISL,ioos:station:DISL:MHPA:1,2014-02-01T09:30:00Z,30.6671,-87.9365,8.5,0.88,8.89,-9999.0,'1111122,1111122,1111122' 
DISL,ioos:station:DISL:MHPA:1,2014-02-01T10:00:00Z,30.6671,-87.9365,8.5,1.63,351.9,-9999.0,'1111122,1111122,1111122' 
DISL,ioos:station:DISL:MHPA:1,2014-02-01T10:30:00Z,30.6671,-87.9365,8.5,1.23,8.08,-9999.0,'1111122,1111122,1111122' 
DISL,ioos:station:DISL:MHPA:1,2014-02-01T11:00:00Z,30.6671,-87.9365,8.5,0.53,108.5,-9999.0,'1111122,1111122,1111122' 
DISL,ioos:station:DISL:MHPA:1,2014-02-01T11:30:00Z,30.6671,-87.9365,8.5,3.2,97.5,-9999.0,'1111122,1111122,1111122' 
DISL,ioos:station:DISL:MHPA:1,2014-02-01T12:00:00Z,30.6671,-87.9365,8.5,3.54,101.5,-9999.0,'1111122,1111122,1111122' 
DISL,ioos:station:DISL:MHPA:1,2014-02-01T12:30:00Z,30.6671,-87.9365,8.5,3.84,89.7,-9999.0,'1111122,1111122,1111122' 
DISL,ioos:station:DISL:MHPA:1,2014-02-01T13:00:00Z,30.6671,-87.9365,8.5,3.62,92.7,-9999.0,'1111122,1111122,1111122' 
DISL,ioos:station:DISL:MHPA:1,2014-02-01T13:30:00Z,30.6671,-87.9365,8.5,2.93,91.5,-9999.0,'1111122,1111122,1111122' 
DISL,ioos:station:DISL:MHPA:1,2014-02-01T14:00:00Z,30.6671,-87.9365,8.5,2.54,90.1,-9999.0,'1111122,1111122,1111122' 
DISL,ioos:station:DISL:MHPA:1,2014-02-01T14:30:00Z,30.6671,-87.9365,8.5,2.83,98.6,-9999.0,'1111122,1111122,1111122' 
DISL,ioos:station:DISL:MHPA:1,2014-02-01T15:00:00Z,30.6671,-87.9365,8.5,2.7,101.1,-9999.0,'1111122,1111122,1111122' 
DISL,ioos:station:DISL:MHPA:1,2014-02-01T15:30:00Z,30.6671,-87.9365,8.5,2.45,102.9,-9999.0,'1111122,1111122,1111122' 
DISL,ioos:station:DISL:MHPA:1,2014-02-01T16:00:00Z,30.6671,-87.9365,8.5,1.75,186.6,-9999.0,'1111122,1111122,1111122' 
DISL,ioos:station:DISL:MHPA:1,2014-02-01T16:30:00Z,30.6671,-87.9365,8.5,2.52,188.0,-9999.0,'1111122,1111122,1111122' 
DISL,ioos:station:DISL:MHPA:1,2014-02-01T17:00:00Z,30.6671,-87.9365,8.5,1.13,227.7,-9999.0,'1111122,1111122,1111122' 
DISL,ioos:station:DISL:MHPA:1,2014-02-01T17:30:00Z,30.6671,-87.9365,8.5,0.64,193.4,-9999.0,'1111122,1111122,1111122' 
DISL,ioos:station:DISL:MHPA:1,2014-02-01T18:00:00Z,30.6671,-87.9365,8.5,2.54,162.6,-9999.0,'1111122,1111122,1111122' 
DISL,ioos:station:DISL:MHPA:1,2014-02-01T18:30:00Z,30.6671,-87.9365,8.5,3.55,227.0,-9999.0,'1111122,1111122,1111122' 
DISL,ioos:station:DISL:MHPA:1,2014-02-01T19:00:00Z,30.6671,-87.9365,8.5,3.03,233.1,-9999.0,'1111122,1111122,1111122' 
DISL,ioos:station:DISL:MHPA:1,2014-02-01T19:30:00Z,30.6671,-87.9365,8.5,2.26,197.8,-9999.0,'1111122,1111122,1111122' 
DISL,ioos:station:DISL:MHPA:1,2014-02-01T20:00:00Z,30.6671,-87.9365,8.5,4.51,176.6,-9999.0,'1111122,1111122,1111122' 
DISL,ioos:station:DISL:MHPA:1,2014-02-01T20:30:00Z,30.6671,-87.9365,8.5,4.39,175.5,-9999.0,'1111122,1111122,1111122' 
DISL,ioos:station:DISL:MHPA:1,2014-02-01T21:00:00Z,30.6671,-87.9365,8.5,5.08,173.8,-9999.0,'1111122,1111122,1111122' 
DISL,ioos:station:DISL:MHPA:1,2014-02-01T21:30:00Z,30.6671,-87.9365,8.5,3.17,152.2,-9999.0,'1111122,1111122,1111122' 
DISL,ioos:station:DISL:MHPA:1,2014-02-01T22:00:00Z,30.6671,-87.9365,8.5,3.25,128.8,-9999.0,'1111122,1111122,1111122' 
DISL,ioos:station:DISL:MHPA:1,2014-02-01T22:30:00Z,30.6671,-87.9365,8.5,4.39,129.6,-9999.0,'1111122,1111122,1111122' 
DISL,ioos:station:DISL:MHPA:1,2014-02-01T23:00:00Z,30.6671,-87.9365,8.5,3.73,127.5,-9999.0,'1111122,1111122,1111122' 
DISL,ioos:station:DISL:MHPA:1,2014-02-01T23:30:00Z,30.6671,-87.9365,8.5,2.87,113.6,-9999.0,'1111122,1111122,1111122' 
DISL,ioos:station:DISL:MHPA:1,2014-02-02T00:00:00Z,30.6671,-87.9365,8.5,2.2,130.4,-9999.0,'1111122,1111122,1111122' 
DISL,ioos:station:DISL:MHPA:1,2014-02-02T00:30:00Z,30.6671,-87.9365,8.5,1.16,29.89,-9999.0,'1111122,1111122,1111122' 
DISL,ioos:station:DISL:MHPA:1,2014-02-02T01:00:00Z,30.6671,-87.9365,8.5,1.53,117.6,-9999.0,'1111122,1111122,1111122' 
DISL,ioos:station:DISL:MHPA:1,2014-02-02T01:30:00Z,30.6671,-87.9365,8.5,2.78,133.7,-9999.0,'1111122,1111122,1111122' 
DISL,ioos:station:DISL:MHPA:1,2014-02-02T02:00:00Z,30.6671,-87.9365,8.5,3.85,131.9,-9999.0,'1111122,1111122,1111122' 
DISL,ioos:station:DISL:MHPA:1,2014-02-02T02:30:00Z,30.6671,-87.9365,8.5,3.63,109.1,-9999.0,'1111122,1111122,1111122' 
DISL,ioos:station:DISL:MHPA:1,2014-02-02T03:00:00Z,30.6671,-87.9365,8.5,3.91,129.8,-9999.0,'1111122,1111122,1111122' 
DISL,ioos:station:DISL:MHPA:1,2014-02-02T03:30:00Z,30.6671,-87.9365,8.5,3.22,131.7,-9999.0,'1111122,1111122,1111122' 
DISL,ioos:station:DISL:MHPA:1,2014-02-02T04:00:00Z,30.6671,-87.9365,8.5,3.19,126.0,-9999.0,'1111122,1111122,1111122' 
DISL,ioos:station:DISL:MHPA:1,2014-02-02T04:30:00Z,30.6671,-87.9365,8.5,2.69,136.2,-9999.0,'1111122,1111122,1111122' 
DISL,ioos:station:DISL:MHPA:1,2014-02-02T05:00:00Z,30.6671,-87.9365,8.5,3.73,123.2,-9999.0,'1111122,1111122,1111122' 
DISL,ioos:station:DISL:MHPA:1,2014-02-02T05:30:00Z,30.6671,-87.9365,8.5,3.46,126.5,-9999.0,'1111122,1111122,1111122' 
DISL,ioos:station:DISL:MHPA:1,2014-02-02T06:00:00Z,30.6671,-87.9365,8.5,2.68,130.7,-9999.0,'1111122,1111122,1111122' 
DISL,ioos:station:DISL:MHPA:1,2014-02-02T06:30:00Z,30.6671,-87.9365,8.5,3.6,124.1,-9999.0,'1111122,1111122,1111122' 
DISL,ioos:station:DISL:MHPA:1,2014-02-02T07:00:00Z,30.6671,-87.9365,8.5,2.71,123.4,-9999.0,'1111122,1111122,1111122' 
DISL,ioos:station:DISL:MHPA:1,2014-02-02T07:30:00Z,30.6671,-87.9365,8.5,3.11,133.4,-9999.0,'1111122,1111122,1111122' 
DISL,ioos:station:DISL:MHPA:1,2014-02-02T08:00:00Z,30.6671,-87.9365,8.5,2.28,141.9,-9999.0,'1111122,1111122,1111122' 
DISL,ioos:station:DISL:MHPA:1,2014-02-02T08:30:00Z,30.6671,-87.9365,8.5,3.45,130.5,-9999.0,'1111122,1111122,1111122' 
DISL,ioos:station:DISL:MHPA:1,2014-02-02T09:00:00Z,30.6671,-87.9365,8.5,3.02,114.4,-9999.0,'1111122,1111122,1111122' 
DISL,ioos:station:DISL:MHPA:1,2014-02-02T09:30:00Z,30.6671,-87.9365,8.5,2.65,112.9,-9999.0,'1111122,1111122,1111122' 
DISL,ioos:station:DISL:MHPA:1,2014-02-02T10:00:00Z,30.6671,-87.9365,8.5,1.47,68.61,-9999.0,'1111122,1111122,1111122' 
DISL,ioos:station:DISL:MHPA:1,2014-02-02T10:30:00Z,30.6671,-87.9365,8.5,2.25,102.3,-9999.0,'1111122,1111122,1111122' 
DISL,ioos:station:DISL:MHPA:1,2014-02-02T11:00:00Z,30.6671,-87.9365,8.5,1.38,83.3,-9999.0,'1111122,1111122,1111122' 
DISL,ioos:station:DISL:MHPA:1,2014-02-02T11:30:00Z,30.6671,-87.9365,8.5,2.13,87.5,-9999.0,'1111122,1111122,1111122' 
DISL,ioos:station:DISL:MHPA:1,2014-02-02T12:00:00Z,30.6671,-87.9365,8.5,1.71,100.6,-9999.0,'1111122,1111122,1111122' 
DISL,ioos:station:DISL:MHPA:1,2014-02-02T12:30:00Z,30.6671,-87.9365,8.5,2.43,104.1,-9999.0,'1111122,1111122,1111122' 
DISL,ioos:station:DISL:MHPA:1,2014-02-02T13:00:00Z,30.6671,-87.9365,8.5,4.26,109.8,-9999.0,'1111122,1111122,1111122' 
DISL,ioos:station:DISL:MHPA:1,2014-02-02T13:30:00Z,30.6671,-87.9365,8.5,3.09,116.9,-9999.0,'1111122,1111122,1111122' 
DISL,ioos:station:DISL:MHPA:1,2014-02-02T14:00:00Z,30.6671,-87.9365,8.5,3.75,110.8,-9999.0,'1111122,1111122,1111122' 
DISL,ioos:station:DISL:MHPA:1,2014-02-02T14:30:00Z,30.6671,-87.9365,8.5,5.28,112.3,-9999.0,'1111122,1111122,1111122' 
DISL,ioos:station:DISL:MHPA:1,2014-02-02T15:00:00Z,30.6671,-87.9365,8.5,3.72,136.2,-9999.0,'1111122,1111122,1111122' 
DISL,ioos:station:DISL:MHPA:1,2014-02-02T15:30:00Z,30.6671,-87.9365,8.5,3.41,135.4,-9999.0,'1111122,1111122,1111122' 
DISL,ioos:station:DISL:MHPA:1,2014-02-02T16:00:00Z,30.6671,-87.9365,8.5,4.16,130.6,-9999.0,'1111122,1111122,1111122' 
DISL,ioos:station:DISL:MHPA:1,2014-02-02T16:30:00Z,30.6671,-87.9365,8.5,4.4,126.2,-9999.0,'1111122,1111122,1111122' 
DISL,ioos:station:DISL:MHPA:1,2014-02-02T17:00:00Z,30.6671,-87.9365,8.5,4.44,117.9,-9999.0,'1111122,1111122,1111122' 
DISL,ioos:station:DISL:MHPA:1,2014-02-02T17:30:00Z,30.6671,-87.9365,8.5,5.3,117.4,-9999.0,'1111122,1111122,1111122' 
DISL,ioos:station:DISL:MHPA:1,2014-02-02T18:00:00Z,30.6671,-87.9365,8.5,6.74,116.2,-9999.0,'1111122,1111122,1111122' 
DISL,ioos:station:DISL:MHPA:1,2014-02-02T18:30:00Z,30.6671,-87.9365,8.5,5.43,122.9,-9999.0,'1111122,1111122,1111122' 
DISL,ioos:station:DISL:MHPA:1,2014-02-02T19:00:00Z,30.6671,-87.9365,8.5,5.29,124.1,-9999.0,'1111122,1111122,1111122' 
DISL,ioos:station:DISL:MHPA:1,2014-02-02T19:30:00Z,30.6671,-87.9365,8.5,5.32,124.7,-9999.0,'1111122,1111122,1111122' 
DISL,ioos:station:DISL:MHPA:1,2014-02-02T20:00:00Z,30.6671,-87.9365,8.5,6.86,118.7,-9999.0,'1111122,1111122,1111122' 
DISL,ioos:station:DISL:MHPA:1,2014-02-02T20:30:00Z,30.6671,-87.9365,8.5,5.3,118.9,-9999.0,'1111122,1111122,1111122' 
DISL,ioos:station:DISL:MHPA:1,2014-02-02T21:00:00Z,30.6671,-87.9365,8.5,5.61,127.6,-9999.0,'1111122,1111122,1111122' 
DISL,ioos:station:DISL:MHPA:1,2014-02-02T21:30:00Z,30.6671,-87.9365,8.5,5.18,124.0,-9999.0,'1111122,1111122,1111122' 
DISL,ioos:station:DISL:MHPA:1,2014-02-02T22:00:00Z,30.6671,-87.9365,8.5,5.5,126.1,-9999.0,'1111122,1111122,1111122' 
DISL,ioos:station:DISL:MHPA:1,2014-02-02T22:30:00Z,30.6671,-87.9365,8.5,4.94,131.4,-9999.0,'1111122,1111122,1111122' 
DISL,ioos:station:DISL:MHPA:1,2014-02-02T23:00:00Z,30.6671,-87.9365,8.5,5.01,125.1,-9999.0,'1111122,1111122,1111122' 
DISL,ioos:station:DISL:MHPA:1,2014-02-02T23:30:00Z,30.6671,-87.9365,8.5,5.38,124.6,-9999.0,'1111122,1111122,1111122' 
DISL,ioos:station:DISL:MHPA:1,2014-02-03T00:00:00Z,30.6671,-87.9365,8.5,5.02,130.9,-9999.0,'1111122,1111122,1111122' 
DISL,ioos:station:DISL:MHPA:1,2014-02-03T00:30:00Z,30.6671,-87.9365,8.5,5.4,120.5,-9999.0,'1111122,1111122,1111122' 
DISL,ioos:station:DISL:MHPA:1,2014-02-03T01:00:00Z,30.6671,-87.9365,8.5,6.1,134.8,-9999.0,'1111122,1111122,1111122' 
DISL,ioos:station:DISL:MHPA:1,2014-02-03T01:30:00Z,30.6671,-87.9365,8.5,6.06,133.4,-9999.0,'1111122,1111122,1111122' 
DISL,ioos:station:DISL:MHPA:1,2014-02-03T02:00:00Z,30.6671,-87.9365,8.5,5.76,147.0,-9999.0,'1111122,1111122,1111122' 
DISL,ioos:station:DISL:MHPA:1,2014-02-03T02:30:00Z,30.6671,-87.9365,8.5,7.16,161.3,-9999.0,'1111122,1111122,1111122' 
DISL,ioos:station:DISL:MHPA:1,2014-02-03T03:00:00Z,30.6671,-87.9365,8.5,6.87,159.7,-9999.0,'1111122,1111122,1111122' 
DISL,ioos:station:DISL:MHPA:1,2014-02-03T03:30:00Z,30.6671,-87.9365,8.5,5.83,165.1,-9999.0,'1111122,1111122,1111122' 
DISL,ioos:station:DISL:MHPA:1,2014-02-03T04:00:00Z,30.6671,-87.9365,8.5,3.3,177.5,-9999.0,'1111122,1111122,1111122' 
DISL,ioos:station:DISL:MHPA:1,2014-02-03T04:30:00Z,30.6671,-87.9365,8.5,5.18,166.2,-9999.0,'1111122,1111122,1111122' 
DISL,ioos:station:DISL:MHPA:1,2014-02-03T05:00:00Z,30.6671,-87.9365,8.5,4.08,184.7,-9999.0,'1111122,1111122,1111122' 
DISL,ioos:station:DISL:MHPA:1,2014-02-03T05:30:00Z,30.6671,-87.9365,8.5,5.42,175.6,-9999.0,'1111122,1111122,1111122' 
DISL,ioos:station:DISL:MHPA:1,2014-02-03T06:00:00Z,30.6671,-87.9365,8.5,5.29,170.1,-9999.0,'1111122,1111122,1111122' 
DISL,ioos:station:DISL:MHPA:1,2014-02-03T06:30:00Z,30.6671,-87.9365,8.5,5.24,170.6,-9999.0,'1111122,1111122,1111122' 
DISL,ioos:station:DISL:MHPA:1,2014-02-03T07:00:00Z,30.6671,-87.9365,8.5,4.37,170.3,-9999.0,'1111122,1111122,1111122' 
DISL,ioos:station:DISL:MHPA:1,2014-02-03T07:30:00Z,30.6671,-87.9365,8.5,4.34,169.0,-9999.0,'1111122,1111122,1111122' 
DISL,ioos:station:DISL:MHPA:1,2014-02-03T08:00:00Z,30.6671,-87.9365,8.5,5.99,155.3,-9999.0,'1111122,1111122,1111122' 
DISL,ioos:station:DISL:MHPA:1,2014-02-03T08:30:00Z,30.6671,-87.9365,8.5,5.77,157.3,-9999.0,'1111122,1111122,1111122' 
DISL,ioos:station:DISL:MHPA:1,2014-02-03T09:00:00Z,30.6671,-87.9365,8.5,5.8,165.4,-9999.0,'1111122,1111122,1111122' 
DISL,ioos:station:DISL:MHPA:1,2014-02-03T09:30:00Z,30.6671,-87.9365,8.5,5.46,163.2,-9999.0,'1111122,1111122,1111122' 
DISL,ioos:station:DISL:MHPA:1,2014-02-03T10:00:00Z,30.6671,-87.9365,8.5,2.62,272.3,-9999.0,'1111122,1111122,1111122' 
DISL,ioos:station:DISL:MHPA:1,2014-02-03T10:30:00Z,30.6671,-87.9365,8.5,1.34,322.0,-9999.0,'1111122,1111122,1111122' 
DISL,ioos:station:DISL:MHPA:1,2014-02-03T11:00:00Z,30.6671,-87.9365,8.5,2.75,332.6,-9999.0,'1111122,1111122,1111122' 
DISL,ioos:station:DISL:MHPA:1,2014-02-03T11:30:00Z,30.6671,-87.9365,8.5,2.37,324.6,-9999.0,'1111122,1111122,1111122' 
DISL,ioos:station:DISL:MHPA:1,2014-02-03T12:00:00Z,30.6671,-87.9365,8.5,4.63,327.0,-9999.0,'1111122,1111122,1111122' 
DISL,ioos:station:DISL:MHPA:1,2014-02-03T12:30:00Z,30.6671,-87.9365,8.5,5.1,328.8,-9999.0,'1111122,1111122,1111122' 
DISL,ioos:station:DISL:MHPA:1,2014-02-03T13:00:00Z,30.6671,-87.9365,8.5,5.48,328.2,-9999.0,'1111122,1111122,1111122' 
DISL,ioos:station:DISL:MHPA:1,2014-02-03T13:30:00Z,30.6671,-87.9365,8.5,6.11,347.1,-9999.0,'1111122,1111122,1111122' 
DISL,ioos:station:DISL:MHPA:1,2014-02-03T14:00:00Z,30.6671,-87.9365,8.5,5.68,346.2,-9999.0,'1111122,1111122,1111122' 
DISL,ioos:station:DISL:MHPA:1,2014-02-03T14:30:00Z,30.6671,-87.9365,8.5,4.24,350.3,-9999.0,'1111122,1111122,1111122' 
DISL,ioos:station:DISL:MHPA:1,2014-02-03T15:00:00Z,30.6671,-87.9365,8.5,5.3,348.4,-9999.0,'1111122,1111122,1111122' 
DISL,ioos:station:DISL:MHPA:1,2014-02-03T15:30:00Z,30.6671,-87.9365,8.5,4.42,346.7,-9999.0,'1111122,1111122,1111122' 
DISL,ioos:station:DISL:MHPA:1,2014-02-03T16:00:00Z,30.6671,-87.9365,8.5,4.53,356.7,-9999.0,'1111122,1111122,1111122' 
DISL,ioos:station:DISL:MHPA:1,2014-02-03T16:30:00Z,30.6671,-87.9365,8.5,4.43,348.3,-9999.0,'1111122,1111122,1111122' 
DISL,ioos:station:DISL:MHPA:1,2014-02-03T17:00:00Z,30.6671,-87.9365,8.5,4.06,340.3,-9999.0,'1111122,1111122,1111122' 
DISL,ioos:station:DISL:MHPA:1,2014-02-03T17:30:00Z,30.6671,-87.9365,8.5,4.9,340.5,-9999.0,'1111122,1111122,1111122' 
DISL,ioos:station:DISL:MHPA:1,2014-02-03T18:00:00Z,30.6671,-87.9365,8.5,4.78,336.6,-9999.0,'1111122,1111122,1111122' 
DISL,ioos:station:DISL:MHPA:1,2014-02-03T18:30:00Z,30.6671,-87.9365,8.5,4.6,338.8,-9999.0,'1111122,1111122,1111122' 
DISL,ioos:station:DISL:MHPA:1,2014-02-03T19:00:00Z,30.6671,-87.9365,8.5,5.29,337.5,-9999.0,'1111122,1111122,1111122' 
DISL,ioos:station:DISL:MHPA:1,2014-02-03T19:30:00Z,30.6671,-87.9365,8.5,4.99,341.2,-9999.0,'1111122,1111122,1111122' 
DISL,ioos:station:DISL:MHPA:1,2014-02-03T20:00:00Z,30.6671,-87.9365,8.5,5.76,332.0,-9999.0,'1111122,1111122,1111122' 
DISL,ioos:station:DISL:MHPA:1,2014-02-03T20:30:00Z,30.6671,-87.9365,8.5,5.35,329.1,-9999.0,'1111122,1111122,1111122' 
DISL,ioos:station:DISL:MHPA:1,2014-02-03T21:00:00Z,30.6671,-87.9365,8.5,4.98,340.0,-9999.0,'1111122,1111122,1111122' 
DISL,ioos:station:DISL:MHPA:1,2014-02-03T21:30:00Z,30.6671,-87.9365,8.5,5.42,339.4,-9999.0,'1111122,1111122,1111122' 
DISL,ioos:station:DISL:MHPA:1,2014-02-03T22:00:00Z,30.6671,-87.9365,8.5,5.17,352.2,-9999.0,'1111122,1111122,1111122' 
DISL,ioos:station:DISL:MHPA:1,2014-02-03T22:30:00Z,30.6671,-87.9365,8.5,4.71,357.8,-9999.0,'1111122,1111122,1111122' 
DISL,ioos:station:DISL:MHPA:1,2014-02-03T23:00:00Z,30.6671,-87.9365,8.5,3.38,12.01,-9999.0,'1111122,1111122,1111122' 
DISL,ioos:station:DISL:MHPA:1,2014-02-03T23:30:00Z,30.6671,-87.9365,8.5,3.56,356.1,-9999.0,'1111122,1111122,1111122' 
DISL,ioos:station:DISL:MHPA:1,2014-02-04T00:00:00Z,30.6671,-87.9365,8.5,3.75,354.8,-9999.0,'1111122,1111122,1111122' 
DISL,ioos:station:DISL:MHPA:1,2014-02-04T00:30:00Z,30.6671,-87.9365,8.5,3.11,8.6,-9999.0,'1111122,1111122,1111122' 
DISL,ioos:station:DISL:MHPA:1,2014-02-04T01:00:00Z,30.6671,-87.9365,8.5,3.68,12.09,-9999.0,'1111122,1111122,1111122' 
DISL,ioos:station:DISL:MHPA:1,2014-02-04T01:30:00Z,30.6671,-87.9365,8.5,3.77,359.7,-9999.0,'1111122,1111122,1111122' 
DISL,ioos:station:DISL:MHPA:1,2014-02-04T02:00:00Z,30.6671,-87.9365,8.5,3.42,359.8,-9999.0,'1111122,1111122,1111122' 
DISL,ioos:station:DISL:MHPA:1,2014-02-04T02:30:00Z,30.6671,-87.9365,8.5,3.16,3.704,-9999.0,'1111122,1111122,1111122' 
DISL,ioos:station:DISL:MHPA:1,2014-02-04T03:00:00Z,30.6671,-87.9365,8.5,3.21,349.9,-9999.0,'1111122,1111122,1111122' 
DISL,ioos:station:DISL:MHPA:1,2014-02-04T03:30:00Z,30.6671,-87.9365,8.5,3.4,358.1,-9999.0,'1111122,1111122,1111122' 
DISL,ioos:station:DISL:MHPA:1,2014-02-04T04:00:00Z,30.6671,-87.9365,8.5,3.11,349.9,-9999.0,'1111122,1111122,1111122' 
DISL,ioos:station:DISL:MHPA:1,2014-02-04T04:30:00Z,30.6671,-87.9365,8.5,3.45,350.0,-9999.0,'1111122,1111122,1111122' 
DISL,ioos:station:DISL:MHPA:1,2014-02-04T05:00:00Z,30.6671,-87.9365,8.5,3.32,351.1,-9999.0,'1111122,1111122,1111122' 
DISL,ioos:station:DISL:MHPA:1,2014-02-04T05:30:00Z,30.6671,-87.9365,8.5,2.53,354.1,-9999.0,'1111122,1111122,1111122' 
DISL,ioos:station:DISL:MHPA:1,2014-02-04T06:00:00Z,30.6671,-87.9365,8.5,3.58,354.0,-9999.0,'1111122,1111122,1111122' 
DISL,ioos:station:DISL:MHPA:1,2014-02-04T06:30:00Z,30.6671,-87.9365,8.5,2.64,4.931,-9999.0,'1111122,1111122,1111122' 
DISL,ioos:station:DISL:MHPA:1,2014-02-04T07:00:00Z,30.6671,-87.9365,8.5,2.11,349.2,-9999.0,'1111122,1111122,1111122' 
DISL,ioos:station:DISL:MHPA:1,2014-02-04T07:30:00Z,30.6671,-87.9365,8.5,1.74,352.5,-9999.0,'1111122,1111122,1111122' 
DISL,ioos:station:DISL:MHPA:1,2014-02-04T08:00:00Z,30.6671,-87.9365,8.5,1.48,7.02,-9999.0,'1111122,1111122,1111122' 
DISL,ioos:station:DISL:MHPA:1,2014-02-04T08:30:00Z,30.6671,-87.9365,8.5,2.21,357.5,-9999.0,'1111122,1111122,1111122' 
DISL,ioos:station:DISL:MHPA:1,2014-02-04T09:00:00Z,30.6671,-87.9365,8.5,2.34,357.3,-9999.0,'1111122,1111122,1111122' 
DISL,ioos:station:DISL:MHPA:1,2014-02-04T09:30:00Z,30.6671,-87.9365,8.5,1.74,2.295,-9999.0,'1111122,1111122,1111122' 
DISL,ioos:station:DISL:MHPA:1,2014-02-04T10:00:00Z,30.6671,-87.9365,8.5,1.62,15.06,-9999.0,'1111122,1111122,1111122' 
DISL,ioos:station:DISL:MHPA:1,2014-02-04T10:30:00Z,30.6671,-87.9365,8.5,1.35,356.1,-9999.0,'1111122,1111122,1111122' 
DISL,ioos:station:DISL:MHPA:1,2014-02-04T11:00:00Z,30.6671,-87.9365,8.5,1.43,21.37,-9999.0,'1111122,1111122,1111122' 
DISL,ioos:station:DISL:MHPA:1,2014-02-04T11:30:00Z,30.6671,-87.9365,8.5,1.17,7.8,-9999.0,'1111122,1111122,1111122' 
DISL,ioos:station:DISL:MHPA:1,2014-02-04T12:00:00Z,30.6671,-87.9365,8.5,1.48,16.87,-9999.0,'1111122,1111122,1111122' 
DISL,ioos:station:DISL:MHPA:1,2014-02-04T12:30:00Z,30.6671,-87.9365,8.5,0.73,13.62,-9999.0,'1111122,1111122,1111122' 
DISL,ioos:station:DISL:MHPA:1,2014-02-04T13:00:00Z,30.6671,-87.9365,8.5,1.14,31.59,-9999.0,'1111122,1111122,1111122' 
DISL,ioos:station:DISL:MHPA:1,2014-02-04T13:30:00Z,30.6671,-87.9365,8.5,0.82,16.98,-9999.0,'1111122,1111122,1111122' 
DISL,ioos:station:DISL:MHPA:1,2014-02-04T14:00:00Z,30.6671,-87.9365,8.5,0.71,29.83,-9999.0,'1111122,1111122,1111122' 
DISL,ioos:station:DISL:MHPA:1,2014-02-04T14:30:00Z,30.6671,-87.9365,8.5,0.37,10.65,-9999.0,'1111122,1111122,1111122' 
DISL,ioos:station:DISL:MHPA:1,2014-02-04T15:00:00Z,30.6671,-87.9365,8.5,0.49,76.2,-9999.0,'1111122,1111122,1111122' 
DISL,ioos:station:DISL:MHPA:1,2014-02-04T15:30:00Z,30.6671,-87.9365,8.5,1.47,98.4,-9999.0,'1111122,1111122,1111122' 
DISL,ioos:station:DISL:MHPA:1,2014-02-04T16:00:00Z,30.6671,-87.9365,8.5,1.72,108.8,-9999.0,'1111122,1111122,1111122' 
DISL,ioos:station:DISL:MHPA:1,2014-02-04T16:30:00Z,30.6671,-87.9365,8.5,2.16,232.3,-9999.0,'1111122,1111122,1111122' 
DISL,ioos:station:DISL:MHPA:1,2014-02-04T17:00:00Z,30.6671,-87.9365,8.5,0.85,274.8,-9999.0,'1111122,1111122,1111122' 
DISL,ioos:station:DISL:MHPA:1,2014-02-04T17:30:00Z,30.6671,-87.9365,8.5,1.43,260.0,-9999.0,'1111122,1111122,1111122' 
DISL,ioos:station:DISL:MHPA:1,2014-02-04T18:00:00Z,30.6671,-87.9365,8.5,0.65,225.3,-9999.0,'1111122,1111122,1111122' 
DISL,ioos:station:DISL:MHPA:1,2014-02-04T18:30:00Z,30.6671,-87.9365,8.5,1.06,253.9,-9999.0,'1111122,1111122,1111122' 
DISL,ioos:station:DISL:MHPA:1,2014-02-04T19:00:00Z,30.6671,-87.9365,8.5,1.83,278.6,-9999.0,'1111122,1111122,1111122' 
DISL,ioos:station:DISL:MHPA:1,2014-02-04T19:30:00Z,30.6671,-87.9365,8.5,1.21,241.4,-9999.0,'1111122,1111122,1111122' 
DISL,ioos:station:DISL:MHPA:1,2014-02-04T20:00:00Z,30.6671,-87.9365,8.5,0.51,170.4,-9999.0,'1111122,1111122,1111122' 
DISL,ioos:station:DISL:MHPA:1,2014-02-04T20:30:00Z,30.6671,-87.9365,8.5,2.48,167.2,-9999.0,'1111122,1111122,1111122' 
DISL,ioos:station:DISL:MHPA:1,2014-02-04T21:00:00Z,30.6671,-87.9365,8.5,4.83,163.8,-9999.0,'1111122,1111122,1111122' 
DISL,ioos:station:DISL:MHPA:1,2014-02-04T21:30:00Z,30.6671,-87.9365,8.5,6.11,164.4,-9999.0,'1111122,1111122,1111122' 
DISL,ioos:station:DISL:MHPA:1,2014-02-04T22:00:00Z,30.6671,-87.9365,8.5,6.48,163.7,-9999.0,'1111122,1111122,1111122' 
DISL,ioos:station:DISL:MHPA:1,2014-02-04T22:30:00Z,30.6671,-87.9365,8.5,6.4,157.3,-9999.0,'1111122,1111122,1111122' 
DISL,ioos:station:DISL:MHPA:1,2014-02-04T23:00:00Z,30.6671,-87.9365,8.5,6.85,153.8,-9999.0,'1111122,1111122,1111122' 
DISL,ioos:station:DISL:MHPA:1,2014-02-04T23:30:00Z,30.6671,-87.9365,8.5,6.22,153.9,-9999.0,'1111122,1111122,1111122' 
DISL,ioos:station:DISL:MHPA:1,2014-02-05T00:00:00Z,30.6671,-87.9365,8.5,5.47,140.8,-9999.0,'1111122,1111122,1111122' 
DISL,ioos:station:DISL:MHPA:1,2014-02-05T00:30:00Z,30.6671,-87.9365,8.5,4.72,140.8,-9999.0,'1111122,1111122,1111122' 
DISL,ioos:station:DISL:MHPA:1,2014-02-05T01:00:00Z,30.6671,-87.9365,8.5,5.71,142.4,-9999.0,'1111122,1111122,1111122' 
DISL,ioos:station:DISL:MHPA:1,2014-02-05T01:30:00Z,30.6671,-87.9365,8.5,7.91,145.9,-9999.0,'1111122,1111122,1111122' 
DISL,ioos:station:DISL:MHPA:1,2014-02-05T02:00:00Z,30.6671,-87.9365,8.5,8.67,148.6,-9999.0,'1111122,1111122,1111122' 
DISL,ioos:station:DISL:MHPA:1,2014-02-05T02:30:00Z,30.6671,-87.9365,8.5,9.38,151.2,-9999.0,'1111122,1111122,1111122' 
DISL,ioos:station:DISL:MHPA:1,2014-02-05T03:00:00Z,30.6671,-87.9365,8.5,8.99,160.6,-9999.0,'1111122,1111122,1111122' 
DISL,ioos:station:DISL:MHPA:1,2014-02-05T03:30:00Z,30.6671,-87.9365,8.5,9.07,152.0,-9999.0,'1111122,1111122,1111122' 
DISL,ioos:station:DISL:MHPA:1,2014-02-05T04:00:00Z,30.6671,-87.9365,8.5,9.07,160.2,-9999.0,'1111122,1111122,1111122' 
DISL,ioos:station:DISL:MHPA:1,2014-02-05T04:30:00Z,30.6671,-87.9365,8.5,8.94,155.6,-9999.0,'1111122,1111122,1111122' 